[Iaude] MPEC M25: 2022 MG [a=1.24,e=0.20,i=18.6,H=24.3]

mpec at marsden.cfa.harvard.edu mpec at marsden.cfa.harvard.edu
Tue Jun 21 08:52:23 EDT 2022


M.P.E.C. 2022-M25                                 Issued 2022 June 21, 12:51 UT

     The Minor Planet Electronic Circulars contain information on unusual
         minor planets and routine data on comets.  They are published
    on behalf of Division F of the International Astronomical Union by the
          Minor Planet Center, Smithsonian Astrophysical Observatory,
                          Cambridge, MA 02138, U.S.A.

             Prepared using the Tamkin Foundation Computer Network

                              MPC at CFA.HARVARD.EDU
            URL https://www.minorplanetcenter.net/    ISSN 1523-6714

                                    2022 MG                                     


Observations:
     K22M00G* C2022 06 19.36279916 11 15.461-07 28 09.26         20.37wUEM025F52
     K22M00G  C2022 06 19.38462816 11 13.383-07 34 06.61         19.77GVEM025F52
     K22M00G  C2022 06 19.39554616 11 12.336-07 37 05.60         20.55wUEM025F52
     K22M00G 1C2022 06 19.88685216 10 51.395-09 49 53.71         20.2 GVEM025Z84
     K22M00G 1C2022 06 19.90236816 10 50.060-09 54 01.63         20.6 GVEM025Z84
     K22M00G KC2022 06 19.92177616 10 47.08 -09 59 19.6          20.6 GVEM025104
     K22M00G KC2022 06 19.93526016 10 45.95 -10 02 53.1          20.3 GVEM025104
     K22M00G KC2022 06 19.96624716 10 44.60 -10 11 07.4          19.3 GXEM025958
     K22M00G KC2022 06 19.97113216 10 44.18 -10 12 24.5          19.1 GXEM025958
     K22M00G KC2022 06 19.97601516 10 43.85 -10 13 41.5          19.4 GXEM025958
     K22M00G KC2022 06 20.01822216 10 44.844-10 23 01.97         18.8 GXEM025Y00
     K22M00G KC2022 06 20.02478916 10 44.234-10 24 46.22         18.9 GXEM025Y00
     K22M00G KC2022 06 20.03116216 10 43.673-10 26 26.74         19.6 GXEM025Y00
     K22M00G KC2022 06 20.12437216 10 40.07 -10 52 43.3          20.0 VuEM025H21
     K22M00G KC2022 06 20.12630016 10 39.89 -10 53 13.8          20.2 VuEM025H21
     K22M00G KC2022 06 20.12823016 10 39.74 -10 53 44.4          19.8 VuEM025H21
     K22M00G KC2022 06 20.13048016 10 39.57 -10 54 19.9          19.9 VuEM025H21
     K22M00G KC2022 06 20.19560 16 10 34.86 -11 11 23.9          20.2 rqEM025H36
     K22M00G KC2022 06 20.20136 16 10 34.40 -11 12 53.6          20.3 rqEM025H36
     K22M00G KC2022 06 20.20712 16 10 33.94 -11 14 24.6          19.6 rqEM025H36
     K22M00G  C2022 06 20.22818916 10 34.462-11 19 47.97         20.4 GVEM025654
     K22M00G  C2022 06 20.23174916 10 34.181-11 20 43.95         20.4 GVEM025654
     K22M00G  C2022 06 20.26341316 10 31.460-11 28 59.43         20.3 GVEM025654
     K22M00G  C2022 06 20.26742216 10 31.114-11 30 02.08         20.3 GVEM025654
     K22M00G KC2022 06 20.33091616 10 25.079-11 46 26.04         20.32GVEM025I52
     K22M00G KC2022 06 20.33155316 10 24.985-11 46 36.34         18.75GVEM025I52
     K22M00G KC2022 06 20.33218716 10 25.003-11 46 43.54               VEM025I52
     K22M00G KC2022 06 20.33282016 10 24.902-11 46 56.03         20.13GVEM025I52
     K22M00G  C2022 06 20.34718416 10 28.602-11 50 24.92         20.18wUEM025F52
     K22M00G  C2022 06 20.36004116 10 27.438-11 53 45.09         20.33wUEM025F52
     K22M00G  C2022 06 20.38737516 10 24.967-12 00 46.27         20.16wUEM025F52
     K22M00G KC2022 06 20.93576 16 10 00.68 -14 20 49.4          20.4 GVEM025204
     K22M00G HC2022 06 20.95316 16 09 59.35 -14 25 09.2                VEM025204
     K22M00G KC2022 06 21.17446 16 09 52.26 -15 19 54.1          20.3 rqEM025H36
     K22M00G KC2022 06 21.18922 16 09 51.11 -15 23 31.7          20.0 rqEM025H36
     K22M00G  C2022 06 21.19326116 09 53.117-15 24 24.82         20.3 GVEM025654
     K22M00G KC2022 06 21.20399 16 09 49.94 -15 27 09.6          19.8 rqEM025H36
     K22M00G  C2022 06 21.27634716 09 46.494-15 44 47.57         20.3 GVEM025654
     K22M00G  C2022 06 21.33207316 09 42.156-15 58 20.21         20.2 GVEM025654

Observer details:
104 San Marcello Pistoiese.  Observers P. Bacci, M. Maestripieri, M. Michela.
    Measurers P. Bacci, L. Tesi, G. Fagioli.  0.60-m F4 Reflector + CCD.
204 Schiaparelli Observatory.  Observer L. Buzzi.  0.84-m f/3.5 reflector +
    CCD.
654 Table Mountain Observatory, Wrightwood-PHMC.  Observers N. Evans, P. Choi,
    N. Saini, C. Zhai, R. Trahan, M. Shao.  1.0-m Reflector + CCD.
958 Observatoire de Dax.  Observer P. Dupouy.  0.50-m f/4.5 Reflector + CCD.
F52 Pan-STARRS 2, Haleakala.  Observers J. Bulger, T. Lowe, A. Schultz, I.
    Smith, K. Chambers, T. Dukes.  Measurers K. Chambers, S. Chastel, T. de
    Boer, J. Fairlamb, H. Gao, M. Huber, C.-C. Lin, E. Magnier, Y.
    Ramanjooloo, R. Wainscoat, R. Weryk.  1.8-m Ritchey-Chretien + CCD.
H21 Astronomical Research Observatory, Westfield.  Observer R. Holmes.
    Measurers T. Linder, R. Holmes, L. Horn.  0.76-m f/3.0 astrograph + CCD.
H36 Sandlot Observatory, Scranton.  Observer G. Hug.  .56 meter reflector +
    CCD.
I52 Steward Observatory, Mt. Lemmon Station.  Observer R. A. Kowalski.
    Measurers E. J. Christensen, D. Fay, J. B. Fazekas, D. C. Fuls, A. R.
    Gibbs, A. D. Grauer, H. Groeller, J. K. Hogan, R. A. Kowalski, S. M.
    Larson, G. J. Leonard, D. Rankin, R. L. Seaman, A. Serrano, F. C. Shelly,
    K. W. Wierzchos.  1.0-m prime focus + CCD.
Y00 SONEAR Observatory, Oliveira.  Observer C. Jacques.  0.45-m f/2.9 0.45-m
    f/2.9 reflector + CCD.
Z84 Calar Alto-Schmidt.  Observers M. Micheli, R. Kresken, E. Schwab, L.
    Conversi, D. Koschny.  Measurer M. Micheli.  0.8-m f/3 Schmidt + CCD.

Orbital elements:
2022 MG                                                  Earth MOID = 0.0689 AU
Epoch 2022 Aug. 9.0 TT = JDT 2459800.5                  Veres                   
M  78.92160              (2000.0)            P               Q                  
n   0.71406418     Peri.  115.24089     -0.86557414     +0.38633674             
a   1.2396846      Node    88.87395     -0.49036811     -0.78295381             
e   0.2031656      Incl.   18.58384     +0.10158993     -0.48757283             
P   1.38           H   24.37          G   0.15           U   8                  
Residuals in seconds of arc
220619 F52  0.0   0.0     220620 H21  0.4+  0.0     220620 I52  0.4+  2.5+
220619 F52  0.1+  0.3+    220620 H21  0.1+  0.1-    220620 I52  0.3-  0.2-
220619 F52  0.0   0.2-    220620 H21  0.2+  0.2-    220620 F52  0.0   0.1+
220619 Z84  0.0   0.2+    220620 H21  0.4+  0.2-    220620 F52  0.0   0.1-
220619 Z84  0.3-  0.2+    220620 H36  0.4-  0.7-    220620 F52 (0.1-  3.0+)
220619 104  0.1-  0.3+    220620 H36  0.1-  0.1-    220620 204  0.1+  0.1+
220619 104 (0.5-  1.3+)   220620 H36  0.2+  0.8-    220620 204  0.3-  0.5+
220619 958  0.6+  0.6-    220620 654  0.3-  0.1+    220621 H36  0.3-  0.1-
220619 958  0.3+  0.2-    220620 654  0.1+  0.1-    220621 H36  0.2-  0.2+
220619 958  1.3+  0.3+    220620 654  0.0   0.1-    220621 654  0.0   0.1-
220620 Y00  0.0   0.7-    220620 654  0.1-  0.1-    220621 H36  0.3-  0.1-
220620 Y00  0.2-  0.7-    220620 I52  0.1+  0.3+    220621 654  0.1+  0.0
220620 Y00  0.1+  0.2-    220620 I52  0.6-  0.2-    220621 654  0.0   0.0

Ephemeris:
2022 MG                  a,e,i = 1.24, 0.20, 19                  q = 0.9878
Date    TT    R. A. (2000) Decl.     Delta      r    Elong.  Phase     V
2022 05 22    17 02 05.2 +72 01 18   0.1670  1.0171    87.0    83.6    23.4
...
2022 06 06    16 28 55.2 +48 48 46   0.09645 1.0491   108.4    66.6    21.7
...
2022 06 14    16 16 50.3 +18 26 43   0.07467 1.0696   134.8    42.3    20.5
...
2022 06 20    16 10 44.1 -10 18 20   0.07838 1.0862   152.3    25.7    20.2
2022 06 21    16 09 59.1 -14 35 05   0.08085 1.0890   153.2    24.8    20.2
2022 06 22    16 09 18.8 -18 35 37   0.08378 1.0919   153.5    24.6    20.3
...
2022 06 28    16 07 07.7 -36 50 00   0.1087  1.1096   147.3    29.7    21.1
...
2022 07 06    16 09 31.6 -49 48 43   0.1533  1.1341   137.3    37.5    22.1
...
2022 07 21    16 29 41.6 -59 23 13   0.2503  1.1817   126.3    43.9    23.4

M. P. C. Staff               (C) Copyright 2022 MPC           M.P.E.C. 2022-M25




More information about the Iaude mailing list